DW8790 Maspalomas ES current weather conditions

sailwx.info

Wind from 344 at 1 knots gusting 5

Air temperature 13.9° C
Dewpoint 7.9° C

Last reported at 2019-Jan-19 07:05 UTC.
Time now 2019-Jan-19 08:16 UTC

Location: N 27°46' W 015°34'.
View on Google Maps.

See reports from other nearby stations

  
Tides and Currents Weather Stations Pressure Air Temp Water Temp Dewpoint Dewpoint Depression Visibility Wind Speed Wind Dir Waves Ship Positions
date/time (UTC)wind fromknots sea level pressurealtimeterstation pressurevisibilityair tempwater tempwave heightnotes
2019-Jan-19 07:05 344 1 gusting 5 13.9
2019-Jan-19 07:00 345 0 gusting 4 14.4
2019-Jan-19 06:55 344 2 gusting 4 14.4
2019-Jan-19 06:50 348 1 gusting 4 14.4
2019-Jan-19 06:45 019 0 gusting 2 14.4
2019-Jan-19 06:40 342 2 gusting 5 14.4
2019-Jan-19 06:35 340 1 gusting 2 14.4
2019-Jan-19 06:30 319 2 gusting 6 14.4
2019-Jan-19 06:25 013 2 gusting 6 14.4
2019-Jan-19 06:20 333 1 gusting 6 14.4
2019-Jan-19 06:15 016 1 gusting 6 14.4
2019-Jan-19 06:10 015 2 gusting 5 14.4
2019-Jan-19 06:05 020 1 gusting 5 14.4
2019-Jan-19 06:00 002 1 gusting 5 13.9
2019-Jan-19 05:55 354 3 gusting 6 13.9
2019-Jan-19 05:50 331 2 gusting 5 13.9
2019-Jan-19 05:45 001 1 gusting 6 13.9
2019-Jan-19 05:40 011 1 gusting 6 13.9
2019-Jan-19 05:35 353 2 gusting 6 13.9
2019-Jan-19 05:30 017 2 gusting 5 13.9
2019-Jan-19 05:25 016 2 gusting 6 13.9
2019-Jan-19 05:20 359 3 gusting 6 13.9
2019-Jan-19 05:15 304 1 gusting 5 13.9
2019-Jan-19 05:10 007 1 gusting 5 13.9
2019-Jan-19 05:05 348 0 gusting 4 13.9
2019-Jan-19 05:00 340 1 gusting 2 13.9
2019-Jan-19 04:55 285 0 gusting 4 13.9
2019-Jan-19 04:50 279 0 gusting 4 13.9
2019-Jan-19 04:45 355 13.9
2019-Jan-19 04:40 328 13.9
2019-Jan-19 04:35 341 1 gusting 2 13.9
2019-Jan-19 04:30 303 14.4
2019-Jan-19 04:25 015 0 gusting 2 14.4
2019-Jan-19 04:20 342 1 gusting 4 14.4
2019-Jan-19 04:15 005 1 gusting 4 14.4
2019-Jan-19 04:10 008 1 gusting 4 14.4
2019-Jan-19 04:05 355 0 gusting 2 14.4
2019-Jan-19 04:00 037 0 gusting 4 14.4
2019-Jan-19 03:55 036 0 gusting 2 14.4
2019-Jan-19 03:50 013 0 gusting 2 14.4
2019-Jan-19 03:45 028 1 gusting 4 14.4
2019-Jan-19 03:40 039 1 gusting 2 14.4
2019-Jan-19 03:35 344 0 gusting 2 14.4
2019-Jan-19 03:30 030 14.4
2019-Jan-19 03:20 354 0 gusting 4 14.4
2019-Jan-19 03:15 003 1 gusting 2 14.4
2019-Jan-19 03:10 040 1 gusting 4 14.4
2019-Jan-19 03:05 343 0 gusting 2 14.4
2019-Jan-19 03:00 228 14.4
2019-Jan-19 02:55 299 14.4
2019-Jan-19 02:50 348 0 gusting 2 14.4
2019-Jan-19 02:45 339 2 gusting 5 14.4
2019-Jan-19 02:40 006 0 gusting 2 14.4
2019-Jan-19 02:35 350 1 gusting 4 14.4
2019-Jan-19 02:30 346 0 gusting 2 14.4
2019-Jan-19 02:25 026 0 gusting 4 14.4
2019-Jan-19 02:20 002 2 gusting 5 14.4
2019-Jan-19 02:15 321 1 gusting 2 14.4
2019-Jan-19 02:10 313 2 gusting 4 14.4
2019-Jan-19 02:05 306 2 gusting 4 14.4
2019-Jan-19 02:00 288 0 gusting 2 15.0
2019-Jan-19 01:55 323 15.0
2019-Jan-19 01:50 022 0 gusting 2 15.0
2019-Jan-19 01:45 003 1 gusting 4 15.0
2019-Jan-19 01:40 007 1 gusting 5 15.0
2019-Jan-19 01:35 016 1 gusting 5 15.0
2019-Jan-19 01:30 352 2 gusting 4 15.0
2019-Jan-19 01:25 006 2 gusting 6 15.0
2019-Jan-19 01:20 326 1 gusting 4 15.0
2019-Jan-19 01:15 335 1 gusting 4 15.0
2019-Jan-19 01:10 306 0 gusting 4 15.0
2019-Jan-19 01:05 317 1 gusting 4 15.0
2019-Jan-19 01:00 340 15.0
2019-Jan-19 00:55 344 15.0
2019-Jan-19 00:50 340 0 gusting 2 15.0
2019-Jan-19 00:45 004 15.0
2019-Jan-19 00:35 019 1 gusting 6 15.0
2019-Jan-19 00:30 010 1 gusting 4 15.0
2019-Jan-19 00:25 340 1 gusting 5 15.0
2019-Jan-19 00:20 354 1 gusting 5 15.0
2019-Jan-19 00:15 332 0 gusting 2 15.0
2019-Jan-19 00:10 355 0 gusting 2 15.0
2019-Jan-19 00:05 15.0
2019-Jan-19 00:00 335 15.0
2019-Jan-18 23:55 334 15.0
2019-Jan-18 23:50 334 15.0
2019-Jan-18 23:45 357 15.0
2019-Jan-18 23:40 018 0 gusting 2 15.0
2019-Jan-18 23:35 326 15.0
2019-Jan-18 23:30 352 15.0
2019-Jan-18 23:25 043 0 gusting 1 15.0
2019-Jan-18 23:20 068 1 gusting 4 15.0
2019-Jan-18 23:15 053 2 gusting 4 15.0
2019-Jan-18 23:10 336 0 gusting 1 15.0
2019-Jan-18 23:05 336 0 gusting 2 15.0
2019-Jan-18 22:55 348 15.0
2019-Jan-18 22:50 348 0 gusting 1 15.0
2019-Jan-18 22:45 348 15.0
2019-Jan-18 22:35 348 15.0
2019-Jan-18 22:30 263 0 gusting 2 15.6
2019-Jan-18 22:25 250 0 gusting 2 15.6
2019-Jan-18 22:20 321 15.6
2019-Jan-18 22:15 027 16.1
2019-Jan-18 22:10 028 16.1
2019-Jan-18 22:05 028 16.1
2019-Jan-18 22:00 048 1 gusting 2 16.1
2019-Jan-18 21:55 034 1 gusting 6 16.1
2019-Jan-18 21:50 071 1 gusting 8 16.1
2019-Jan-18 21:45 074 4 gusting 7 16.1
2019-Jan-18 21:40 085 2 gusting 6 16.7
2019-Jan-18 21:35 067 3 gusting 7 16.7
2019-Jan-18 21:30 085 4 gusting 8 16.7
2019-Jan-18 21:25 076 4 gusting 8 16.7
2019-Jan-18 21:20 087 2 gusting 6 16.1
2019-Jan-18 21:15 086 16.7
2019-Jan-18 21:10 086 16.7
2019-Jan-18 21:05 086 16.7
2019-Jan-18 21:00 086 16.7
2019-Jan-18 20:55 086 16.7
2019-Jan-18 20:50 080 1 gusting 4 16.7
2019-Jan-18 20:45 040 0 gusting 2 16.7
2019-Jan-18 20:40 063 0 gusting 6 16.7
2019-Jan-18 20:35 080 5 gusting 7 16.7
2019-Jan-18 20:30 071 1 gusting 8 16.7
2019-Jan-18 20:25 083 5 gusting 10 16.7
2019-Jan-18 20:20 085 4 gusting 7 16.7
2019-Jan-18 20:15 086 5 gusting 8 16.7
2019-Jan-18 20:10 081 6 gusting 10 16.7
2019-Jan-18 20:05 088 6 gusting 10 16.7
2019-Jan-18 20:00 086 4 gusting 11 16.7
2019-Jan-18 19:55 085 6 gusting 10 16.7
2019-Jan-18 19:50 077 4 gusting 7 16.7
2019-Jan-18 19:45 078 6 gusting 10 17.2
2019-Jan-18 19:40 081 5 gusting 11 17.2
2019-Jan-18 19:35 076 5 gusting 10 17.2
2019-Jan-18 19:30 093 4 gusting 10 17.8
2019-Jan-18 19:25 084 4 gusting 8 17.8
2019-Jan-18 19:20 075 4 gusting 6 17.8
2019-Jan-18 19:15 058 2 gusting 7 17.8
2019-Jan-18 19:10 067 4 gusting 10 17.8
2019-Jan-18 19:05 083 6 gusting 10 17.8
2019-Jan-18 19:00 042 4 gusting 8 17.8
2019-Jan-18 18:55 093 6 gusting 8 17.8
2019-Jan-18 18:50 084 2 gusting 6 17.8
2019-Jan-18 18:45 139 18.3
2019-Jan-18 18:40 115 0 gusting 4 18.3
2019-Jan-18 18:35 165 1 gusting 6 18.3
2019-Jan-18 18:30 130 1 gusting 6 18.3
2019-Jan-18 18:25 110 0 gusting 2 18.3
2019-Jan-18 18:20 206 3 gusting 8 18.3
2019-Jan-18 18:15 246 2 gusting 6 18.9
2019-Jan-18 18:10 224 2 gusting 6 18.9
2019-Jan-18 18:05 229 4 gusting 6 18.3
2019-Jan-18 18:00 253 4 gusting 6 18.9
2019-Jan-18 17:55 239 6 gusting 8 18.9
2019-Jan-18 17:50 223 4 gusting 8 19.4
2019-Jan-18 17:45 226 3 gusting 6 19.4
2019-Jan-18 17:40 253 5 gusting 10 18.9
2019-Jan-18 17:35 249 6 gusting 10 18.9
2019-Jan-18 17:30 258 6 gusting 10 18.9
2019-Jan-18 17:25 240 5 gusting 10 18.9
2019-Jan-18 17:15 231 4 gusting 7 19.4
2019-Jan-18 17:10 224 5 gusting 7 19.4
2019-Jan-18 17:05 244 5 gusting 8 19.4
2019-Jan-18 17:00 245 6 gusting 10 19.4
2019-Jan-18 16:55 258 6 gusting 10 19.4
2019-Jan-18 16:50 215 4 gusting 10 19.4
2019-Jan-18 16:45 230 5 gusting 7 19.4
2019-Jan-18 16:40 238 3 gusting 6 19.4
2019-Jan-18 16:35 220 5 gusting 8 20.0
2019-Jan-18 16:30 233 1 gusting 6 19.4
2019-Jan-18 16:25 204 1 gusting 6 19.4
2019-Jan-18 16:20 195 2 gusting 6 19.4
2019-Jan-18 16:15 234 2 gusting 6 19.4
2019-Jan-18 16:10 241 4 gusting 6 19.4
2019-Jan-18 16:05 223 5 gusting 7 18.9
2019-Jan-18 16:00 250 4 gusting 6 18.9
2019-Jan-18 15:55 230 4 gusting 8 18.9
2019-Jan-18 15:50 240 5 gusting 8 18.9
2019-Jan-18 15:45 214 2 gusting 7 18.9
2019-Jan-18 15:40 237 4 gusting 8 18.3
2019-Jan-18 15:35 218 5 gusting 7 18.9
2019-Jan-18 15:30 216 4 gusting 8 18.9
2019-Jan-18 15:20 227 4 gusting 8 18.9
2019-Jan-18 15:15 212 2 gusting 8 18.9
2019-Jan-18 15:10 245 4 gusting 10 18.9
2019-Jan-18 15:05 237 6 gusting 10 18.9
2019-Jan-18 15:00 222 4 gusting 6 18.9
2019-Jan-18 14:55 193 5 gusting 10 18.9
2019-Jan-18 14:50 241 6 gusting 7 18.9
2019-Jan-18 14:45 237 5 gusting 10 18.3
2019-Jan-18 14:40 189 3 gusting 8 18.3
2019-Jan-18 14:35 220 3 gusting 7 18.3
2019-Jan-18 14:30 208 4 gusting 7 18.9
2019-Jan-18 14:25 221 4 gusting 8 18.3
2019-Jan-18 14:20 228 4 gusting 7 18.9
2019-Jan-18 14:15 232 4 gusting 11 18.9
2019-Jan-18 14:10 213 6 gusting 10 18.9
2019-Jan-18 14:05 208 5 gusting 11 18.9
2019-Jan-18 14:00 236 4 gusting 7 18.9
2019-Jan-18 13:55 178 2 gusting 7 18.9
2019-Jan-18 13:50 198 5 gusting 8 18.9
2019-Jan-18 13:45 213 4 gusting 6 18.9
2019-Jan-18 13:40 192 1 gusting 4 18.3
2019-Jan-18 13:35 205 2 gusting 6 18.3
2019-Jan-18 13:30 181 2 gusting 6 18.9
2019-Jan-18 13:25 236 4 gusting 7 18.9
2019-Jan-18 13:20 188 2 gusting 7 18.3
2019-Jan-18 13:15 208 2 gusting 6 18.3
2019-Jan-18 13:10 168 3 gusting 6 18.3
2019-Jan-18 13:05 206 4 gusting 8 18.3
2019-Jan-18 13:00 191 4 gusting 6 18.3
2019-Jan-18 12:55 206 3 gusting 7 18.3
2019-Jan-18 12:50 197 5 gusting 10 18.9
2019-Jan-18 12:45 210 3 gusting 10 18.9
2019-Jan-18 12:40 216 4 gusting 7 18.9
2019-Jan-18 12:35 228 6 gusting 10 18.3
2019-Jan-18 12:30 213 4 gusting 6 18.3
2019-Jan-18 12:25 258 5 gusting 12 18.3
2019-Jan-18 12:20 223 5 gusting 12 18.3
2019-Jan-18 12:15 228 6 gusting 10 18.3
2019-Jan-18 12:10 220 5 gusting 10 18.3
2019-Jan-18 12:05 231 4 gusting 10 18.3
2019-Jan-18 12:00 223 3 gusting 8 18.3
2019-Jan-18 11:55 230 2 gusting 6 18.3
2019-Jan-18 11:50 204 4 gusting 6 18.3
2019-Jan-18 11:45 228 3 gusting 6 18.3
2019-Jan-18 11:40 200 1 gusting 5 18.3
2019-Jan-18 11:35 229 3 gusting 6 18.3
2019-Jan-18 11:30 205 1 gusting 4 18.3
2019-Jan-18 11:25 213 1 gusting 4 18.3
2019-Jan-18 11:20 254 2 gusting 5 18.3
2019-Jan-18 11:15 179 2 gusting 6 18.3
2019-Jan-18 11:10 233 4 gusting 7 18.3
2019-Jan-18 11:05 203 3 gusting 5 18.3
2019-Jan-18 11:00 224 2 gusting 5 17.8
2019-Jan-18 10:55 234 1 gusting 5 17.8
2019-Jan-18 10:50 176 1 gusting 4 17.8
2019-Jan-18 10:45 244 2 gusting 5 17.8
2019-Jan-18 10:40 244 0 gusting 4 17.8
2019-Jan-18 10:35 243 3 gusting 6 18.3
2019-Jan-18 10:30 231 4 gusting 6 18.3
2019-Jan-18 10:25 263 3 gusting 6 18.9
2019-Jan-18 10:20 259 2 gusting 6 18.9
2019-Jan-18 10:15 227 4 gusting 6 18.9
2019-Jan-18 10:10 269 2 gusting 5 18.3
2019-Jan-18 10:05 283 2 gusting 5 18.3
2019-Jan-18 10:00 302 1 gusting 2 18.3
2019-Jan-18 09:55 305 0 gusting 1 18.3
2019-Jan-18 09:50 290 1 gusting 2 17.8
2019-Jan-18 09:45 279 0 gusting 2 17.8
2019-Jan-18 09:40 275 0 gusting 2 17.8
2019-Jan-18 09:35 355 17.2
2019-Jan-18 09:30 016 1 gusting 2 17.2
2019-Jan-18 09:25 347 16.7
2019-Jan-18 09:20 341 1 gusting 2 16.7
2019-Jan-18 09:15 345 0 gusting 2 16.1
2019-Jan-18 09:10 16.1
2019-Jan-18 09:05 302 1 gusting 2 16.1
2019-Jan-18 09:00 315 1 gusting 2 16.1
2019-Jan-18 08:55 312 16.1
2019-Jan-18 08:50 024 15.6
2019-Jan-18 08:45 024 15.6
2019-Jan-18 08:40 15.0
2019-Jan-18 08:35 310 0 gusting 2 15.0
2019-Jan-18 08:30 353 1 gusting 2 15.0
2019-Jan-18 08:25 013 15.0
2019-Jan-18 08:20 028 14.4
2019-Jan-18 08:15 041 2 gusting 4 14.4
2019-Jan-18 08:10 14.4
2019-Jan-18 08:05 321 0 gusting 2 14.4
2019-Jan-18 08:00 317 0 gusting 2 15.0
2019-Jan-18 07:55 350 15.0
2019-Jan-18 07:50 350 14.4
2019-Jan-18 07:45 350 0 gusting 2 14.4
2019-Jan-18 07:40 353 1 gusting 4 14.4
2019-Jan-18 07:35 047 0 gusting 4 15.0
2019-Jan-18 07:30 005 15.0
2019-Jan-18 07:25 005 0 gusting 1 15.0
2019-Jan-18 07:20 005 14.4
2019-Jan-18 07:15 352 1 gusting 4 14.4
2019-Jan-18 07:10 333 0 gusting 2 15.0
2019-Jan-18 07:05 352 1 gusting 2 15.0
2019-Jan-18 07:00 321 14.4
2019-Jan-18 06:55 321 14.4
2019-Jan-18 06:50 321 14.4
2019-Jan-18 06:45 334 14.4
2019-Jan-18 06:40 334 14.4
2019-Jan-18 06:35 322 0 gusting 2 15.0
2019-Jan-18 06:30 346 1 gusting 2 15.0
2019-Jan-18 06:25 312 14.4
2019-Jan-18 06:20 325 2 gusting 2 14.4
2019-Jan-18 06:15 317 1 gusting 2 14.4
2019-Jan-18 06:10 302 1 gusting 2 14.4
2019-Jan-18 06:05 300 0 gusting 2 13.9
2019-Jan-18 06:00 341 2 gusting 5 14.4
2019-Jan-18 05:55 312 2 gusting 4 14.4
2019-Jan-18 05:50 298 1 gusting 4 14.4
2019-Jan-18 05:45 019 0 gusting 4 14.4
2019-Jan-18 05:40 081 1 gusting 5 14.4
2019-Jan-18 05:35 025 14.4
2019-Jan-18 05:30 077 1 gusting 4 14.4
2019-Jan-18 05:25 065 1 gusting 2 15.0
2019-Jan-18 05:20 303 15.0
2019-Jan-18 05:15 303 0 gusting 2 15.0
2019-Jan-18 05:10 303 1 gusting 2 15.0
2019-Jan-18 05:05 303 2 gusting 2 14.4
2019-Jan-18 05:00 303 1 gusting 2 14.4
2019-Jan-18 04:55 303 14.4
2019-Jan-18 04:50 313 14.4
2019-Jan-18 04:45 057 1 gusting 2 14.4
2019-Jan-18 04:40 14.4
2019-Jan-18 04:35 13.9
2019-Jan-18 04:30 14.4
2019-Jan-18 04:25 296 14.4
2019-Jan-18 04:20 296 14.4
2019-Jan-18 04:15 296 14.4
2019-Jan-18 04:10 296 0 gusting 2 14.4
2019-Jan-18 04:05 283 15.0
2019-Jan-18 04:00 283 14.4
2019-Jan-18 03:55 283 14.4
2019-Jan-18 03:50 283 1 gusting 2 14.4
2019-Jan-18 03:45 297 0 gusting 2 14.4
2019-Jan-18 03:40 332 3 gusting 6 15.0
2019-Jan-18 03:35 282 0 gusting 7 15.0
2019-Jan-18 03:30 182 0 gusting 4 13.9
2019-Jan-18 03:20 340 14.4
2019-Jan-18 03:15 333 1 gusting 2 14.4
2019-Jan-18 03:10 005 13.9
2019-Jan-18 03:05 005 13.9
2019-Jan-18 03:00 005 13.9
2019-Jan-18 02:55 005 13.9
2019-Jan-18 02:50 005 13.9
2019-Jan-18 02:45 331 1 gusting 2 13.9
2019-Jan-18 02:40 264 2 gusting 2 14.4
2019-Jan-18 02:35 311 14.4
2019-Jan-18 02:30 039 0 gusting 2 14.4
2019-Jan-18 02:25 348 0 gusting 2 14.4
2019-Jan-18 02:20 009 14.4
2019-Jan-18 02:15 049 14.4
2019-Jan-18 02:10 049 14.4
2019-Jan-18 02:05 049 14.4
2019-Jan-18 02:00 049 15.0
2019-Jan-18 01:55 049 0 gusting 2 15.0
2019-Jan-18 01:50 326 15.0
2019-Jan-18 01:45 319 15.0
2019-Jan-18 01:40 319 15.0
2019-Jan-18 01:35 330 0 gusting 2 15.0
2019-Jan-18 01:30 308 0 gusting 1 15.0
2019-Jan-18 01:25 308 0 gusting 1 15.0
2019-Jan-18 01:20 308 15.0
2019-Jan-18 01:15 308 0 gusting 2 15.0
2019-Jan-18 01:10 294 1 gusting 4 15.0
2019-Jan-18 01:05 182 15.6
2019-Jan-18 01:00 319 0 gusting 2 15.6
2019-Jan-18 00:55 296 15.6
2019-Jan-18 00:50 277 3 gusting 8 15.6
2019-Jan-18 00:45 064 0 gusting 2 15.0
2019-Jan-18 00:40 299 1 gusting 5 15.0
2019-Jan-18 00:35 345 15.0
2019-Jan-18 00:30 347 0 gusting 2 15.0
2019-Jan-18 00:25 304 0 gusting 2 15.0
2019-Jan-18 00:20 028 15.0
2019-Jan-18 00:15 330 0 gusting 2 15.0
2019-Jan-18 00:10 351 0 gusting 2 15.0
2019-Jan-18 00:05 021 0 gusting 2 14.4
2019-Jan-18 00:00 300 0 gusting 2 14.4
2019-Jan-17 23:55 297 1 gusting 4 14.4
2019-Jan-17 23:50 305 1 gusting 2 15.0
2019-Jan-17 23:45 274 0 gusting 2 15.6
2019-Jan-17 23:40 337 15.6
2019-Jan-17 23:35 351 15.6
2019-Jan-17 23:30 351 15.6
2019-Jan-17 23:25 351 15.6
2019-Jan-17 23:20 066 16.1
2019-Jan-17 23:15 264 0 gusting 2 16.1
2019-Jan-17 23:10 180 1 gusting 2 16.1
2019-Jan-17 23:05 042 16.1
2019-Jan-17 23:00 042 0 gusting 2 16.1
2019-Jan-17 22:55 047 15.6
2019-Jan-17 22:50 034 15.6
2019-Jan-17 22:45 034 0 gusting 1 15.6
2019-Jan-17 22:40 034 15.6
2019-Jan-17 22:35 042 1 gusting 4 15.6
2019-Jan-17 22:30 327 15.6
2019-Jan-17 22:25 327 0 gusting 1 15.6
2019-Jan-17 22:20 327 0 gusting 2 15.6
2019-Jan-17 22:15 327 15.6
2019-Jan-17 22:10 327 0 gusting 2 15.6
2019-Jan-17 22:05 327 15.6
2019-Jan-17 22:00 327 15.6
2019-Jan-17 21:55 336 1 gusting 2 15.6
2019-Jan-17 21:50 311 0 gusting 2 15.6
2019-Jan-17 21:45 303 0 gusting 2 15.6
2019-Jan-17 21:40 314 2 gusting 4 15.6
2019-Jan-17 21:35 323 2 gusting 4 15.6
2019-Jan-17 21:30 303 2 gusting 4 15.6
2019-Jan-17 21:25 330 1 gusting 2 15.0
2019-Jan-17 21:20 326 0 gusting 2 15.0
2019-Jan-17 21:15 295 0 gusting 2 15.6
2019-Jan-17 21:10 005 0 gusting 2 15.6
2019-Jan-17 21:05 15.6
2019-Jan-17 21:00 255 0 gusting 1 15.6
2019-Jan-17 20:55 124 15.6
2019-Jan-17 20:50 124 15.6
2019-Jan-17 20:45 124 15.6
2019-Jan-17 20:40 124 0 gusting 2 16.1
2019-Jan-17 20:35 124 16.1
2019-Jan-17 20:30 124 16.1
2019-Jan-17 20:25 124 16.1
2019-Jan-17 20:20 124 16.1
2019-Jan-17 20:15 124 16.1
2019-Jan-17 20:10 242 0 gusting 1 16.7
2019-Jan-17 20:05 242 16.7
2019-Jan-17 20:00 242 16.7
2019-Jan-17 19:55 242 0 gusting 1 16.1
2019-Jan-17 19:50 242 16.1
2019-Jan-17 19:45 242 16.1
2019-Jan-17 19:40 242 16.1
2019-Jan-17 19:35 242 16.7
2019-Jan-17 19:30 242 16.7
2019-Jan-17 19:25 222 1 gusting 2 16.7
2019-Jan-17 19:20 252 1 gusting 2 16.7
2019-Jan-17 19:15 253 1 gusting 2 17.2
2019-Jan-17 19:10 269 1 gusting 2 17.2
2019-Jan-17 19:05 230 1 gusting 2 17.2
2019-Jan-17 19:00 230 0 gusting 2 17.2
2019-Jan-17 18:55 230 17.8
2019-Jan-17 18:50 230 17.8
2019-Jan-17 18:45 230 0 gusting 2 17.8
2019-Jan-17 18:40 175 0 gusting 2 17.8
2019-Jan-17 18:35 207 17.8
2019-Jan-17 18:30 193 1 gusting 2 17.8
2019-Jan-17 18:25 212 0 gusting 2 18.3
2019-Jan-17 18:20 170 0 gusting 2 18.3
2019-Jan-17 18:15 192 1 gusting 6 18.3
2019-Jan-17 18:10 199 2 gusting 6 18.9
2019-Jan-17 18:05 168 0 gusting 2 18.3
2019-Jan-17 18:00 200 1 gusting 6 18.3
2019-Jan-17 17:55 232 18.3
2019-Jan-17 17:50 172 1 gusting 6 18.3
2019-Jan-17 17:45 200 4 gusting 6 18.3
2019-Jan-17 17:40 174 4 gusting 6 18.3
2019-Jan-17 17:35 180 1 gusting 5 18.3
2019-Jan-17 17:30 177 2 gusting 6 17.8
2019-Jan-17 17:25 184 2 gusting 6 17.8
2019-Jan-17 17:20 197 3 gusting 7 17.8
2019-Jan-17 17:15 200 2 gusting 6 17.8
2019-Jan-17 17:10 158 1 gusting 6 17.8
2019-Jan-17 17:05 196 1 gusting 4 17.8
2019-Jan-17 17:00 158 1 gusting 5 17.8
2019-Jan-17 16:55 166 2 gusting 6 17.8
2019-Jan-17 16:45 179 3 gusting 6 17.8
2019-Jan-17 16:40 177 2 gusting 6 17.8
2019-Jan-17 16:35 170 2 gusting 6 17.8
2019-Jan-17 16:30 186 3 gusting 6 18.3
2019-Jan-17 16:25 175 3 gusting 6 18.3
2019-Jan-17 16:20 167 3 gusting 7 18.3
2019-Jan-17 16:15 198 4 gusting 6 18.3
2019-Jan-17 16:10 191 6 gusting 10 18.9
2019-Jan-17 16:05 201 6 gusting 10 19.4
2019-Jan-17 16:00 173 4 gusting 8 20.0
2019-Jan-17 15:55 163 2 gusting 7 20.0
2019-Jan-17 15:50 205 4 gusting 10 19.4
2019-Jan-17 15:45 197 4 gusting 10 19.4
2019-Jan-17 15:40 212 4 gusting 10 20.0
2019-Jan-17 15:35 170 3 gusting 6 19.4
2019-Jan-17 15:30 210 3 gusting 6 19.4
2019-Jan-17 15:20 187 4 gusting 7 19.4
2019-Jan-17 15:15 161 3 gusting 11 19.4
2019-Jan-17 15:10 208 4 gusting 10 19.4
2019-Jan-17 15:05 191 4 gusting 7 19.4
2019-Jan-17 15:00 199 5 gusting 8 18.9
2019-Jan-17 14:55 181 4 gusting 8 19.4
2019-Jan-17 14:50 237 5 gusting 10 19.4
2019-Jan-17 14:45 227 6 gusting 8 19.4
2019-Jan-17 14:40 163 4 gusting 8 19.4
2019-Jan-17 14:35 201 3 gusting 8 19.4
2019-Jan-17 14:30 182 4 gusting 12 18.9
2019-Jan-17 14:25 165 4 gusting 10 19.4
2019-Jan-17 14:20 215 6 gusting 12 19.4
2019-Jan-17 14:15 193 6 gusting 11 19.4
2019-Jan-17 14:10 172 2 gusting 7 19.4
2019-Jan-17 14:05 198 4 gusting 8 18.9
2019-Jan-17 14:00 151 2 gusting 10 19.4
2019-Jan-17 13:55 150 4 gusting 10 19.4
2019-Jan-17 13:50 120 4 gusting 10 19.4
2019-Jan-17 13:45 180 2 gusting 6 19.4
2019-Jan-17 13:40 192 4 gusting 10 19.4
2019-Jan-17 13:35 175 4 gusting 10 19.4
2019-Jan-17 13:30 194 2 gusting 8 18.9
2019-Jan-17 13:25 190 4 gusting 10 19.4
2019-Jan-17 13:20 125 2 gusting 6 19.4
2019-Jan-17 13:15 224 1 gusting 10 19.4
2019-Jan-17 13:10 181 4 gusting 7 19.4
2019-Jan-17 13:05 200 4 gusting 8 18.9
2019-Jan-17 13:00 197 4 gusting 10 19.4
2019-Jan-17 12:55 162 4 gusting 8 19.4
2019-Jan-17 12:50 203 4 gusting 8 19.4
2019-Jan-17 12:45 194 3 gusting 6 19.4
2019-Jan-17 12:40 133 1 gusting 6 19.4
2019-Jan-17 12:35 173 2 gusting 6 19.4
2019-Jan-17 12:30 171 3 gusting 7 18.9
2019-Jan-17 12:25 196 2 gusting 6 18.9
2019-Jan-17 12:20 173 2 gusting 6 18.9
2019-Jan-17 12:15 172 4 gusting 7 18.9
2019-Jan-17 12:10 186 2 gusting 5 18.9
2019-Jan-17 12:05 183 4 gusting 7 18.9
2019-Jan-17 12:00 187 3 gusting 10 18.9
2019-Jan-17 11:55 206 6 gusting 10 18.9
2019-Jan-17 11:50 198 5 gusting 8 18.9
2019-Jan-17 11:45 227 5 gusting 7 18.9
2019-Jan-17 11:40 222 3 gusting 6 18.9
2019-Jan-17 11:35 188 1 gusting 8 18.3
2019-Jan-17 11:30 180 3 gusting 6 18.3
2019-Jan-17 11:25 188 3 gusting 6 18.3
2019-Jan-17 11:20 189 2 gusting 6 18.3
2019-Jan-17 11:15 160 2 gusting 5 18.3
2019-Jan-17 11:10 192 1 gusting 5 18.9
2019-Jan-17 11:05 162 2 gusting 7 18.9
2019-Jan-17 11:00 158 1 gusting 6 18.9
2019-Jan-17 10:55 171 1 gusting 4 18.9
2019-Jan-17 10:50 158 3 gusting 6 18.9
2019-Jan-17 10:45 143 1 gusting 4 18.9
2019-Jan-17 10:40 209 1 gusting 4 18.9
2019-Jan-17 10:35 164 2 gusting 4 18.9
2019-Jan-17 10:30 193 1 gusting 4 18.9
2019-Jan-17 10:25 149 1 gusting 4 18.9
2019-Jan-17 10:20 134 0 gusting 2 18.3
2019-Jan-17 10:15 171 0 gusting 2 18.3
2019-Jan-17 10:10 152 2 gusting 4 18.9
2019-Jan-17 10:05 142 0 gusting 2 18.9
2019-Jan-17 10:00 227 1 gusting 2 18.9
2019-Jan-17 09:55 205 18.3
2019-Jan-17 09:50 203 0 gusting 2 18.3
2019-Jan-17 09:45 147 0 gusting 2 18.3
2019-Jan-17 09:40 282 0 gusting 2 17.8
2019-Jan-17 09:35 282 0 gusting 1 17.8
2019-Jan-17 09:30 282 17.8
2019-Jan-17 09:25 282 0 gusting 1 17.8
2019-Jan-17 09:20 282 0 gusting 1 17.2
2019-Jan-17 09:15 282 16.7
2019-Jan-17 09:10 282 16.1
2019-Jan-17 09:05 282 1 gusting 2 16.1
2019-Jan-17 09:00 282 1 gusting 2 15.6
2019-Jan-17 08:55 286 0 gusting 2 15.6
2019-Jan-17 08:50 284 2 gusting 4 15.0
2019-Jan-17 08:45 303 0 gusting 4 15.6
2019-Jan-17 08:40 337 1 gusting 2 15.6
2019-Jan-17 08:35 022 15.0
2019-Jan-17 08:30 040 0 gusting 2 15.0
2019-Jan-17 08:25 040 15.0
2019-Jan-17 08:20 040 15.0
2019-Jan-17 08:15 040 15.0
2019-Jan-17 08:10 040 1 gusting 2 14.4
2019-Jan-17 08:05 022 1 gusting 2 14.4
2019-Jan-17 08:00 311 14.4